CYQM

Moncton/Greater Moncton International Airport

Airport
ICAO code
CYQM
IATA Code
YQM
Summary
ICAO Region
NAM
ICAO Territory
Location

Dieppe, New Brunswick,

Serving
Moncton
Elevation
232 ft
Coordinates
46° 6' 44" N , 64° 40' 43" W
KCC
Metar
CYQM 152200Z 23013KT 10SM FEW050TCU FEW070 FEW100 FEW260 29/18 A2974 RMK TCU1AC1AC1CI1 TCU TR AC TR AC TR CI TR SLP074 DENSITY ALT 2100FT

Description

Moncton/Greater Moncton International Airport is located in the city of Dieppe 4 nm east northeast of downtown Moncton, New Brunswick, Canada

Climatology

Humid Continental climate (Köppen climate classification Dfb) - Variable weather patterns and a large seasonal temperature variance. Summers are often warm and humid with frequent thunderstorms and winters can be very cold with frequent snowfall and persistent snow cover.

Runways

Designator Length Width Surface Rops
6/24 1875 61 ASP Yes/Yes
11/29 2438 61 ASP Yes/Yes

Airport map

Aerial View

Airport accidents

SKYbrary Partners:

Safety knowledge contributed by: